Regional Weather Roundup
Issued by NWS

Home | Current Version | Previous Version | Text Only | Print | Product List | Glossary On
Versions: 1 2 3 4 5 6 7 8 9 10 11 12 13 14 15 16 17 18 19 20 21 22 23 24 25 26 27 28 29 30 31 32 33 34 35 36 37 38 39 40 41 42 43 44 45 46 47 48 49 50
000
ASUS46 KPQR 060410
RWROR

OREGON REGIONAL WEATHER ROUNDUP
NATIONAL WEATHER SERVICE PORTLAND OR
900 PM PDT SUN JUL 05 2015

NOTE: "FAIR" INDICATES FEW OR NO CLOUDS BELOW 12,000 FEET WITH
NO SIGNIFICANT WEATHER AND/OR OBSTRUCTIONS TO VISIBILITY.

ORZ001>013-060500-
NORTHWEST OREGON


CITY           SKY/WX    TMP DP  RH WIND       PRES   REMARKS
ASTORIA        CLOUDY    59  56  89 SW3       29.93R
NEWPORT        FOG       54  54 100 S9        29.98R VSB 1/2
PORTLAND       PTCLDY    87  60  40 NW9       29.83R
VANCOUVER WA   CLEAR     84  60  44 N7        29.83R
SCAPPOOSE      CLEAR     78  60  53 N9        29.83R
HILLSBORO      CLEAR     86  49  27 SW3       29.83R
AURORA         CLEAR     82  51  34 SW6       29.86R
MCMINNVILLE    CLEAR     74  53  48 SW12      29.86R
SALEM          CLEAR     79  51  37 SW8       29.86R
CORVALLIS      PTCLDY    72  55  56 W10       29.90R
EUGENE         MOCLDY    76  52  43 SW5       29.91R
$$

ORZ021-028-060500-
SOUTHWEST OREGON


CITY           SKY/WX    TMP DP  RH WIND       PRES   REMARKS
NORTH BEND     CLOUDY    57  55  94 S6        29.97S
BROOKINGS      CLOUDY    59  59 100 SE7       29.98S
ROSEBURG       PTCLDY    82  55  39 N7        29.88R
SEXTON SUMMIT  CLOUDY    73  49  42 SW6       30.06R
MEDFORD        CLOUDY    84  55  36 S6        29.88R
$$

ORZ014>016-041-060500-
COLUMBIA GORGE


CITY           SKY/WX    TMP DP  RH WIND       PRES   REMARKS
TROUTDALE      CLEAR     88  51  28 SW8       29.81R
THE DALLES     CLEAR     90  52  27 NW14      29.78R
$$

ORZ029>031-041-044-049-050-061>064-502-503-505>511-060500-
EASTERN OREGON


CITY           SKY/WX    TMP DP  RH WIND       PRES   REMARKS
REDMOND        MOCLDY    83  43  24 W13       29.97R
BEND             N/A    N/A N/A N/A MISG        N/A
PRINEVILLE     MOCLDY    82  43  24 W13G20    29.97R
KLAMATH FALLS  CLOUDY    70  47  43 E7        30.06F
LAKEVIEW       CLOUDY    66  46  48 E8        30.15F
HERMISTON      CLEAR     82  45  27 E3        29.79R
PENDLETON      CLEAR     80  39  23 N7        29.84R
JOHN DAY       CLOUDY    81  37  20 CALM      29.98R
MEACHAM        CLEAR     68  48  48 CALM      30.01R
LA GRANDE      CLEAR     79  39  24 NW9       29.92S
BAKER CITY     PTCLDY    70  45  40 W9        29.97R
BURNS          CLOUDY    68  49  50 E5        30.05R
ROME             N/A     72  48  42 SE3       30.05R
ONTARIO        CLOUDY    75  58  55 E5        29.90R
$$



USA.gov is the U.S. government's official web portal to all federal, state and local government web resources and services.